Theta_e
317 312 313 315 314 314 315 315 315 315 313 313 314 315 316 315 314 313 312 313 313 314 313 314 315 315 314 316 316 313 316 317 315 315 315 313 314 308 304 304 303 302 302 302 301
320 316 314 316 316 316 317 317 317 316 314 313 315 315 317 316 317 313 313 312 313 313 313 312 312 312 313 316 315 314 315 317 314 313 314 313 312 308 306 304 303 301 300 299 300
320 319 317 317 318 317 318 319 319 318 316 313 316 313 315 313 316 314 313 311 312 313 313 313 312 313 314 315 315 313 313 315 314 313 312 313 311 309 305 307 303 301 298 297 298
317 319 318 318 318 319 319 320 320 320 319 314 316 314 314 316 317 314 313 312 312 314 313 314 311 312 314 315 315 315 313 315 313 312 312 312 310 307 306 305 300 298 297 296 295
314 317 319 318 318 319 319 320 320 320 319 315 316 314 316 315 313 314 312 312 312 313 312 312 311 311 313 314 313 315 314 313 313 312 311 310 310 306 302 300 298 297 296 295 295
312 314 317 318 317 318 319 319 319 318 319 314 315 315 318 318 314 311 311 313 311 312 312 311 311 311 313 315 314 314 314 311 312 313 311 309 307 306 302 299 297 297 296 295 295
311 312 314 317 317 318 319 318 317 316 318 313 315 316 318 317 313 310 311 312 310 311 312 310 310 312 312 313 313 312 313 311 312 311 312 307 308 308 302 298 298 296 295 295 295
310 311 312 315 316 317 318 318 315 317 318 313 316 317 317 314 312 311 310 312 310 310 311 310 310 311 312 311 313 313 311 313 313 311 311 308 310 306 300 299 298 295 293 294 293
310 310 311 314 316 317 318 317 316 317 316 314 318 316 318 313 314 314 311 310 310 310 310 309 311 312 310 313 311 308 313 311 309 309 311 308 308 304 299 299 297 293 292 291 291
311 310 310 313 316 315 317 317 316 317 316 316 316 316 313 314 315 314 311 310 309 310 312 312 306 308 308 311 317 313 309 307 308 310 310 309 309 303 301 297 296 293 292 290 291
311 310 310 312 316 315 315 317 312 312 312 314 312 315 315 316 315 312 310 310 310 312 315 312 312 315 313 309 310 309 309 308 308 309 309 308 309 303 303 296 294 292 290 290 290
314 312 310 312 317 315 311 307 311 311 309 309 310 313 314 314 312 311 309 310 312 314 312 312 314 312 311 310 309 309 310 309 308 307 307 307 307 306 303 299 297 294 290 290 290
315 316 314 313 317 310 308 308 308 310 308 309 312 314 315 311 312 311 307 309 312 313 313 314 314 308 308 308 308 308 310 308 308 306 304 303 304 306 301 300 294 293 292 290 290
315 317 316 315 311 309 312 307 310 310 306 308 312 313 309 309 311 308 306 309 311 314 312 309 308 308 307 308 307 308 306 307 307 305 305 302 305 304 298 299 295 294 291 289 289
315 316 316 318 308 308 310 307 307 309 305 308 315 310 309 310 310 310 306 307 313 312 313 314 305 306 307 307 307 307 305 305 305 304 302 302 301 302 297 298 296 294 291 288 289
314 315 314 315 306 308 305 306 309 309 310 312 313 312 311 310 310 309 308 305 306 307 306 309 305 305 306 307 307 306 305 303 302 300 302 302 301 300 296 299 298 295 290 289 288
314 313 313 314 308 308 306 308 306 308 308 313 315 313 313 312 311 310 310 309 314 316 313 309 307 305 307 307 307 307 303 308 307 304 309 299 300 306 300 297 297 296 290 288 288
313 313 313 314 311 305 310 308 310 306 309 313 312 311 313 311 313 310 310 312 308 310 308 312 313 306 305 306 308 306 303 309 309 308 314 299 304 304 295 291 295 294 290 288 287
313 314 314 314 315 307 302 309 313 309 309 313 313 313 313 313 315 309 308 308 310 307 313 309 309 302 302 302 303 304 302 301 302 286 295 301 300 299 292 290 289 289 288 287 287
314 313 312 314 313 307 301 312 312 309 312 313 313 314 315 314 313 309 308 307 309 306 308 310 311 303 299 300 299 301 300 303 301 307 305 306 305 307 293 291 289 288 288 287 287
314 312 310 312 310 307 310 309 310 311 312 313 314 313 313 313 310 308 311 310 307 304 304 302 308 304 299 300 304 297 300 298 300 308 310 310 314 298 296 294 290 289 288 287 287
312 313 308 308 312 306 314 309 309 310 310 312 312 312 313 311 310 311 312 312 304 302 305 303 303 306 301 299 296 300 302 302 304 306 303 308 311 300 296 294 291 290 288 286 287
312 309 307 307 314 313 310 311 310 310 311 311 311 311 310 311 312 312 311 309 302 304 303 301 303 304 309 300 295 296 295 300 299 302 307 309 311 292 292 290 289 288 287 287 287
310 312 309 308 310 310 311 313 314 310 310 309 310 309 311 311 311 311 311 305 301 303 307 304 304 308 314 311 301 297 293 295 300 304 306 306 306 305 296 290 288 288 287 286 286
311 311 309 311 310 312 311 311 311 313 310 310 310 311 311 312 311 311 310 303 300 301 302 302 308 304 308 310 303 306 308 299 299 302 305 308 308 306 305 299 289 288 285 286 286
315 313 306 305 308 311 311 312 312 309 311 313 312 310 310 312 310 309 311 305 308 298 297 297 306 304 306 305 303 304 305 305 304 304 303 303 304 304 303 290 289 287 287 287 286
315 311 312 313 308 310 311 311 311 310 310 311 311 312 310 311 310 310 307 306 308 305 298 298 301 303 311 305 303 306 306 305 305 304 303 303 303 303 299 289 287 287 287 288 286
Wind_Speed
19 21 22 23 24 24 24 24 25 25 21 17 9 8 10 10 12 12 8 7 8 9 9 10 6 8 2 3 3 3 4 1 2 3 2 2 3 4 4 7 5 4 4 9 13
17 19 21 22 23 23 24 23 24 26 21 17 9 6 6 4 5 10 8 9 7 9 6 9 6 9 3 2 2 4 3 2 1 3 3 0 3 8 5 4 5 5 9 17 20
15 17 19 21 23 23 23 24 23 24 22 16 10 3 6 1 3 3 10 10 7 7 6 6 5 2 3 3 3 1 3 2 1 3 4 4 1 2 13 2 7 10 8 8 17
14 16 18 19 21 22 22 22 23 24 22 15 9 4 6 2 1 1 7 8 7 7 6 5 5 4 3 4 3 3 2 2 6 3 4 5 4 4 1 3 11 11 13 9 10
12 15 17 18 19 20 21 22 23 24 22 14 7 5 3 3 4 1 4 5 5 2 8 4 5 2 2 4 5 1 4 3 0 5 6 6 1 7 4 7 10 13 9 9 9
11 13 15 18 19 20 20 20 22 24 20 11 4 4 2 1 4 0 3 1 6 6 5 6 3 2 1 2 1 2 3 7 6 1 5 7 3 2 7 7 9 9 9 8 10
12 13 15 17 19 20 20 20 21 24 16 8 3 4 2 4 4 1 1 2 4 3 1 2 3 2 1 3 3 3 5 6 4 4 5 9 1 8 9 10 11 10 9 8 8
13 15 16 17 18 20 20 20 21 22 14 5 1 3 3 4 5 1 2 2 2 2 1 2 2 3 3 2 3 2 2 3 3 3 1 5 9 4 10 14 10 9 7 8 7
14 15 16 17 18 20 20 21 22 15 5 5 2 3 3 5 4 5 1 1 3 1 1 1 2 3 4 3 4 5 3 4 7 8 2 6 6 5 8 11 10 9 8 7 6
12 14 15 16 18 20 21 21 15 6 1 1 2 3 2 3 2 3 3 2 1 1 2 2 5 3 4 3 3 4 5 5 7 3 4 7 13 8 13 9 12 9 8 7 7
13 13 14 15 16 19 20 10 7 4 5 3 3 3 1 2 4 4 3 2 2 3 1 3 3 6 8 6 4 3 5 7 6 6 5 10 16 13 17 8 10 10 9 9 8
15 15 14 13 14 14 10 5 3 1 8 2 3 3 4 2 2 4 2 5 4 3 0 6 4 5 2 3 4 5 6 8 9 5 3 9 10 9 16 22 21 17 10 10 6
16 17 14 13 13 6 3 3 1 0 2 6 3 2 2 6 4 5 3 3 4 4 5 5 4 5 3 3 5 4 5 6 8 4 5 8 7 18 3 12 8 8 10 7 10
16 15 14 12 6 2 1 0 3 2 4 6 3 3 3 3 3 0 0 3 2 7 4 5 1 4 5 5 7 6 3 5 4 4 3 4 9 3 6 15 13 14 10 9 9
16 13 11 9 9 3 1 3 3 2 3 5 4 4 3 5 4 2 1 3 5 6 5 8 6 6 6 7 7 8 0 4 3 5 3 6 5 5 3 8 14 17 13 9 9
15 11 10 8 7 5 3 4 2 4 7 4 5 5 4 3 3 2 1 3 1 3 1 6 0 5 6 2 1 1 3 4 3 2 2 7 9 5 6 10 8 15 12 11 9
14 12 10 9 3 4 6 2 3 5 3 5 6 5 4 6 4 6 6 5 6 1 4 2 4 1 2 2 3 3 5 4 5 2 7 5 3 16 8 7 11 23 17 11 9
15 14 13 13 5 5 4 4 7 7 7 2 3 3 6 7 4 5 4 3 5 3 3 4 7 8 4 6 7 5 6 5 6 4 15 2 8 6 4 7 7 11 14 9 9
16 14 14 17 12 9 3 6 10 9 7 9 3 4 5 4 3 5 7 6 8 10 8 7 7 2 1 1 4 4 5 2 1 2 3 5 7 6 4 3 6 11 10 9 9
15 7 13 11 13 8 2 18 8 8 6 4 12 9 9 7 7 7 8 6 5 11 3 4 6 2 2 1 0 4 4 3 1 3 6 7 10 12 7 10 8 11 13 10 8
11 3 8 22 16 2 10 9 10 8 5 7 9 7 8 8 8 7 8 4 7 6 6 6 5 2 4 8 10 1 3 3 2 5 4 4 16 7 15 17 19 17 15 12 10
5 4 12 29 5 4 15 8 6 7 9 7 4 9 11 10 8 8 13 12 11 10 10 8 5 6 13 2 2 2 10 12 5 6 7 2 16 2 9 12 18 17 14 9 8
3 4 14 11 8 13 5 7 10 8 11 9 12 9 6 8 5 12 15 7 13 12 11 9 4 2 6 2 2 6 6 10 1 2 22 8 14 1 1 7 11 15 12 9 8
4 4 5 6 9 10 14 14 13 10 21 7 8 6 5 8 13 8 5 5 5 7 8 13 7 9 17 13 5 6 9 10 17 13 20 28 36 28 13 8 6 7 8 9 8
6 7 8 7 16 20 13 8 23 16 8 18 16 20 14 13 14 15 8 1 1 4 5 9 13 9 22 20 4 15 24 13 22 27 19 39 32 30 26 13 16 18 9 10 8
8 7 3 3 5 24 28 34 27 12 12 21 24 15 25 24 22 16 23 7 10 2 8 3 8 5 15 10 8 20 27 23 25 30 27 36 39 39 26 3 9 14 14 11 8
18 8 9 13 12 15 28 34 28 22 18 22 21 20 22 27 29 29 7 6 9 14 12 9 6 4 20 4 4 14 27 26 21 25 21 22 37 31 18 8 12 15 16 13 10
Wind_Direction
20 18 18 18 16 16 19 23 21 19 20 21 40 104 102 81 50 64 40 350 348 359 348 349 30 354 332 21 35 104 59 29 334 143 159 342 109 35 2 85 50 23 89 117 89
18 14 12 12 13 12 12 14 18 15 14 16 25 150 126 49 13 47 13 10 5 4 7 11 348 352 9 348 21 81 101 207 349 137 154 307 133 146 94 70 66 86 85 92 82
12 11 8 7 7 7 6 6 8 10 7 9 18 149 197 337 34 331 2 10 9 349 349 334 316 320 35 10 357 140 167 191 106 145 175 158 84 73 130 186 195 161 143 112 92
2 3 3 2 2 2 1 359 357 1 360 1 13 119 139 146 139 302 350 8 9 359 14 23 13 27 41 341 344 349 301 207 176 200 152 162 133 64 8 144 135 149 150 133 104
353 354 355 356 356 356 355 353 350 351 351 351 5 171 155 46 220 244 331 1 2 358 40 47 49 2 7 328 344 166 316 333 99 176 133 113 167 147 122 133 128 138 131 124 121
341 346 347 349 349 350 349 347 342 343 342 342 347 186 162 222 165 4 318 288 11 30 35 42 116 140 257 301 335 312 293 287 290 208 169 125 172 78 218 169 143 137 142 143 133
329 337 342 343 344 343 341 340 337 334 332 331 318 208 134 226 180 49 49 133 39 35 102 96 120 130 158 318 320 321 326 323 245 195 208 112 326 229 162 169 164 165 163 155 146
322 330 336 338 339 337 335 332 330 323 319 312 266 179 219 174 188 238 38 138 356 14 63 104 91 109 139 278 16 5 56 349 280 166 198 131 257 238 174 166 178 172 169 163 171
320 324 330 333 334 332 329 326 318 315 298 293 174 160 257 177 214 227 260 245 311 126 73 78 76 95 36 68 5 5 245 233 310 207 136 185 264 223 182 181 183 191 184 172 162
312 314 320 326 328 330 327 324 307 308 260 246 158 42 151 221 189 220 213 251 83 82 40 50 51 53 27 72 258 253 284 274 241 265 199 248 261 190 198 195 196 193 192 180 173
305 306 311 318 324 330 333 337 12 342 28 224 226 253 143 269 254 217 183 137 67 40 23 340 61 243 250 211 198 209 236 230 254 255 223 233 246 205 200 204 204 202 196 185 189
304 305 305 310 317 325 327 73 100 212 301 291 239 264 242 210 289 221 204 161 153 201 65 5 255 226 186 225 238 232 261 265 285 240 210 269 248 227 192 211 206 192 192 187 191
295 304 308 307 314 309 34 129 168 7 286 296 220 201 200 159 223 212 177 158 161 165 201 170 256 114 171 232 257 231 213 252 241 337 290 284 248 242 220 223 193 193 193 183 182
285 297 315 312 298 320 235 113 163 138 48 266 248 248 135 144 273 115 246 155 188 194 192 231 256 186 221 232 174 276 227 256 281 355 260 348 294 258 193 223 204 190 196 185 188
277 288 308 321 297 273 183 149 142 111 347 253 194 151 140 167 131 221 8 57 193 188 132 252 178 191 218 225 165 237 188 263 265 259 349 230 255 240 142 244 211 197 192 189 192
275 278 299 299 281 252 207 145 115 54 250 246 150 184 158 184 200 103 148 49 66 153 277 249 273 188 210 139 177 32 333 299 46 99 255 233 196 221 192 218 196 202 187 187 183
256 260 271 283 274 238 172 127 40 179 279 223 207 179 187 187 203 178 177 179 190 273 269 334 222 59 158 128 17 81 56 312 334 344 237 180 232 258 234 225 196 196 181 183 178
246 241 247 249 271 231 161 58 204 222 228 63 144 106 184 160 223 166 144 234 231 116 111 212 302 176 181 198 186 177 177 168 262 251 293 350 245 252 289 306 231 174 164 170 174
239 238 246 240 241 205 91 216 195 193 202 158 84 169 227 216 203 153 200 203 212 171 187 180 266 119 240 174 159 179 187 152 192 127 7 238 277 275 82 48 103 146 161 182 185
215 232 237 220 201 155 136 228 216 202 146 149 184 178 191 204 173 180 188 204 213 189 161 215 288 208 174 173 13 167 154 69 8 288 274 263 274 248 199 207 186 183 192 196 194
198 230 203 196 160 175 220 225 223 245 185 171 202 202 201 185 194 195 215 235 203 172 154 145 179 185 120 208 183 158 214 199 200 162 228 295 283 207 192 203 192 201 195 190 193
205 232 182 158 179 222 227 193 226 212 219 252 199 200 188 182 204 210 213 204 168 156 169 200 169 202 211 237 280 244 208 186 191 223 235 219 259 168 206 196 195 202 192 187 184
215 195 180 195 215 214 237 234 239 190 203 216 230 194 195 202 248 213 242 208 160 160 172 178 213 315 312 359 331 224 211 219 358 299 248 239 266 25 181 155 197 185 183 187 180
154 217 184 212 233 224 215 230 224 210 231 202 204 174 163 222 219 256 222 221 199 207 163 148 187 181 240 238 137 218 200 203 213 239 255 243 263 261 253 203 203 194 185 183 186
189 214 190 203 219 225 224 238 224 224 211 207 240 224 208 235 225 232 225 236 298 207 178 172 236 194 247 260 194 263 260 206 218 238 237 261 261 265 266 235 203 200 174 178 183
195 198 207 191 170 207 220 233 232 221 186 216 226 206 219 230 217 231 224 178 204 163 173 193 246 154 257 244 223 259 264 254 245 251 249 254 267 266 277 148 163 177 177 180 188
219 222 204 214 202 192 222 234 235 223 236 229 225 229 231 227 228 236 212 190 203 184 184 168 184 139 256 119 359 273 252 239 247 243 233 245 246 263 261 194 176 176 179 180 183